| time (UTC) | temp F | wind direction | speed MPH | gust MPH | rain 1hr in | rain 24hr in | rain mn in | humidity % | barometer mb |
| 20260905211604 | 58 | 305 | 3.0 | 7.0 | 0.00 | 0.08 | 0.01 | 94 | 1016.5 |
| 20260905211051 | 58 | 284 | 5.0 | 7.0 | 0.00 | 0.08 | 0.01 | 94 | 1016.5 |
| 20260905210538 | 59 | 275 | 5.0 | 7.0 | 0.00 | 0.08 | 0.01 | 94 | 1016.5 |
| 20260905210025 | 58 | 261 | 3.0 | 8.0 | 0.00 | 0.08 | 0.01 | 94 | 1016.5 |
| 20260905205512 | 58 | 0 | 0.0 | 8.0 | 0.00 | 0.08 | 0.01 | 94 | 1016.5 |
| 20260905204959 | 58 | 0 | 2.0 | 8.0 | 0.00 | 0.08 | 0.01 | 94 | 1016.6 |
| 20260905204445 | 58 | 330 | 4.0 | 7.0 | 0.00 | 0.08 | 0.01 | 94 | 1016.6 |
| 20260905203932 | 58 | 303 | 4.0 | 7.0 | 0.00 | 0.08 | 0.01 | 94 | 1016.5 |
| 20260905203419 | 58 | 302 | 2.0 | 7.0 | 0.00 | 0.08 | 0.01 | 94 | 1016.5 |
| 20260905202906 | 59 | 301 | 1.0 | 7.0 | 0.00 | 0.08 | 0.01 | 94 | 1016.6 |
| 20260905200815 | 58 | 292 | 3.0 | 8.0 | 0.00 | 0.08 | 0.01 | 95 | 1016.7 |
| 20260905200301 | 58 | 299 | 6.0 | 8.0 | 0.00 | 0.08 | 0.01 | 95 | 1016.7 |
| 20260905195748 | 58 | 291 | 5.0 | 7.0 | 0.00 | 0.08 | 0.01 | 95 | 1016.7 |
| 20260905195235 | 57 | 291 | 5.0 | 7.0 | 0.00 | 0.08 | 0.01 | 95 | 1016.7 |
| 20260905194723 | 57 | 298 | 0.0 | 7.0 | 0.00 | 0.08 | 0.01 | 95 | 1016.8 |
| 20260905194209 | 58 | 291 | 6.0 | 7.0 | 0.00 | 0.08 | 0.01 | 94 | 1016.8 |
| 20260905193656 | 58 | 289 | 2.0 | 7.0 | 0.00 | 0.08 | 0.01 | 94 | 1016.8 |
| 20260905193143 | 59 | 309 | 7.0 | 9.0 | 0.00 | 0.08 | 0.01 | 94 | 1016.8 |
| 20260905192630 | 58 | 301 | 6.0 | 9.0 | 0.00 | 0.08 | 0.01 | 94 | 1016.8 |
| 20260905192117 | 59 | 308 | 5.0 | 9.0 | 0.00 | 0.08 | 0.01 | 95 | 1016.8 |
| 20260905191604 | 59 | 312 | 3.0 | 9.0 | 0.00 | 0.08 | 0.01 | 95 | 1016.8 |
| 20260905191051 | 59 | 235 | 4.0 | 9.0 | 0.00 | 0.08 | 0.01 | 95 | 1016.8 |
| 20260905190538 | 58 | 309 | 4.0 | 8.0 | 0.00 | 0.08 | 0.01 | 95 | 1016.7 |
| 20260905185512 | 58 | 333 | 0.0 | 7.0 | 0.00 | 0.09 | 0.01 | 95 | 1016.8 |
| 20260905184959 | 58 | 298 | 2.0 | 7.0 | 0.00 | 0.09 | 0.01 | 96 | 1016.7 |
| 20260905184446 | 57 | 0 | 0.0 | 8.0 | 0.00 | 0.09 | 0.01 | 95 | 1016.7 |
| 20260905183934 | 57 | 319 | 1.0 | 8.0 | 0.00 | 0.09 | 0.01 | 95 | 1016.8 |
| 20260905183420 | 57 | 317 | 2.0 | 8.0 | 0.00 | 0.09 | 0.01 | 95 | 1016.8 |
| 20260905182907 | 57 | 308 | 1.0 | 6.0 | 0.00 | 0.09 | 0.01 | 95 | 1016.7 |
| 20260905182354 | 57 | 0 | 0.0 | 4.0 | 0.00 | 0.09 | 0.01 | 95 | 1016.7 |
| 20260905181843 | 57 | 0 | 0.0 | 4.0 | 0.00 | 0.09 | 0.01 | 95 | 1016.7 |
| 20260905180815 | 57 | 0 | 0.0 | 3.0 | 0.00 | 0.09 | 0.01 | 96 | 1016.7 |
| 20260905180303 | 57 | 271 | 0.0 | 3.0 | 0.00 | 0.09 | 0.01 | 96 | 1016.8 |
| 20260905175749 | 57 | 0 | 0.0 | 3.0 | 0.00 | 0.10 | 0.01 | 95 | 1016.8 |
| 20260905174723 | 56 | 0 | 0.0 | 0.0 | 0.00 | 0.10 | 0.01 | 96 | 1016.8 |
| 20260905174210 | 56 | 0 | 0.0 | 0.0 | 0.00 | 0.10 | 0.01 | 95 | 1016.8 |
| 20260905173657 | 57 | 0 | 0.0 | 0.0 | 0.00 | 0.10 | 0.01 | 96 | 1016.8 |
| 20260905173144 | 56 | 0 | 0.0 | 5.0 | 0.00 | 0.10 | 0.01 | 95 | 1016.7 |
| 20260905172631 | 56 | 0 | 0.0 | 5.0 | 0.00 | 0.10 | 0.01 | 95 | 1016.7 |
| 20260905171605 | 56 | 0 | 0.0 | 0.0 | 0.00 | 0.10 | 0.01 | 96 | 1016.6 |
| 20260905171052 | 56 | 0 | 0.0 | 0.0 | 0.00 | 0.10 | 0.01 | 96 | 1016.6 |
| 20260905170539 | 55 | 0 | 0.0 | 0.0 | 0.00 | 0.10 | 0.01 | 96 | 1016.6 |
| 20260905170026 | 56 | 0 | 0.0 | 0.0 | 0.00 | 0.10 | 0.01 | 96 | 1016.6 |
| 20260905165515 | 55 | 0 | 0.0 | 0.0 | 0.00 | 0.15 | 0.01 | 96 | 1016.6 |
| 20260905165051 | 55 | 0 | 0.0 | 0.0 | 0.00 | 0.15 | 0.01 | 96 | 1016.6 |
| 20260905165000 | 55 | 0 | 0.0 | 0.0 | 0.00 | 0.15 | 0.01 | 96 | 1016.6 |
| 20260905164447 | 55 | 0 | 0.0 | 0.0 | 0.00 | 0.15 | 0.01 | 96 | 1016.6 |
| 20260905163934 | 55 | 0 | 0.0 | 0.0 | 0.00 | 0.15 | 0.01 | 95 | 1016.7 |
| 20260905163421 | 55 | 0 | 0.0 | 0.0 | 0.00 | 0.15 | 0.01 | 95 | 1016.7 |
| 20260905162909 | 56 | 0 | 0.0 | 0.0 | 0.00 | 0.15 | 0.01 | 95 | 1016.6 |
| 20260905162355 | 55 | 0 | 0.0 | 0.0 | 0.00 | 0.15 | 0.01 | 95 | 1016.6 |
| 20260905161843 | 56 | 0 | 0.0 | 0.0 | 0.00 | 0.15 | 0.01 | 96 | 1016.6 |
| 20260905161332 | 55 | 0 | 0.0 | 0.0 | 0.00 | 0.15 | 0.01 | 95 | 1016.6 |
| 20260905160816 | 56 | 0 | 0.0 | 0.0 | 0.00 | 0.15 | 0.01 | 95 | 1016.6 |
| 20260905160303 | 57 | 0 | 0.0 | 0.0 | 0.00 | 0.15 | 0.01 | 95 | 1016.6 |
| 20260905155750 | 56 | 0 | 0.0 | 0.0 | 0.00 | 0.19 | 0.01 | 96 | 1016.6 |
| 20260905155237 | 56 | 0 | 0.0 | 0.0 | 0.00 | 0.19 | 0.01 | 95 | 1016.6 |
| 20260905154724 | 56 | 0 | 0.0 | 0.0 | 0.00 | 0.19 | 0.01 | 95 | 1016.6 |
| 20260905154211 | 57 | 0 | 0.0 | 0.0 | 0.00 | 0.19 | 0.01 | 95 | 1016.7 |
| 20260905153658 | 56 | 0 | 0.0 | 0.0 | 0.00 | 0.19 | 0.01 | 95 | 1016.6 |
| 20260905153145 | 57 | 0 | 0.0 | 0.0 | 0.00 | 0.19 | 0.01 | 95 | 1016.6 |
| 20260905152632 | 56 | 0 | 0.0 | 0.0 | 0.00 | 0.19 | 0.01 | 95 | 1016.5 |
| 20260905151606 | 55 | 0 | 0.0 | 0.0 | 0.00 | 0.19 | 0.01 | 95 | 1016.5 |
| 20260905151053 | 56 | 0 | 0.0 | 0.0 | 0.00 | 0.19 | 0.01 | 95 | 1016.5 |
| 20260905150540 | 56 | 0 | 0.0 | 0.0 | 0.00 | 0.19 | 0.01 | 95 | 1016.5 |
| 20260905150027 | 55 | 0 | 0.0 | 0.0 | 0.00 | 0.19 | 0.01 | 95 | 1016.5 |
| 20260905145514 | 55 | 0 | 0.0 | 0.0 | 0.00 | 0.22 | 0.01 | 96 | 1016.5 |
| 20260905145001 | 55 | 0 | 0.0 | 0.0 | 0.00 | 0.22 | 0.01 | 96 | 1016.5 |
| 20260905143937 | 55 | 0 | 0.0 | 0.0 | 0.00 | 0.22 | 0.01 | 96 | 1016.4 |
| 20260905143422 | 55 | 0 | 0.0 | 0.0 | 0.00 | 0.22 | 0.01 | 96 | 1016.4 |
| 20260905142910 | 54 | 0 | 0.0 | 0.0 | 0.00 | 0.22 | 0.01 | 96 | 1016.4 |
| 20260905142356 | 54 | 0 | 0.0 | 0.0 | 0.00 | 0.22 | 0.01 | 96 | 1016.3 |
| 20260905141843 | 54 | 0 | 0.0 | 0.0 | 0.00 | 0.22 | 0.01 | 96 | 1016.3 |
| 20260905141332 | 54 | 0 | 0.0 | 0.0 | 0.00 | 0.22 | 0.01 | 96 | 1016.2 |
| 20260905140817 | 54 | 0 | 0.0 | 0.0 | 0.00 | 0.22 | 0.01 | 96 | 1016.2 |
| 20260905140304 | 54 | 0 | 0.0 | 0.0 | 0.00 | 0.22 | 0.01 | 95 | 1016.3 |
| 20260905135751 | 54 | 0 | 0.0 | 0.0 | 0.00 | 0.28 | 0.01 | 95 | 1016.3 |
| 20260905135238 | 54 | 0 | 0.0 | 0.0 | 0.00 | 0.28 | 0.01 | 95 | 1016.3 |
| 20260905134725 | 54 | 0 | 0.0 | 0.0 | 0.00 | 0.28 | 0.01 | 96 | 1016.3 |
| 20260905134212 | 54 | 0 | 0.0 | 0.0 | 0.00 | 0.28 | 0.01 | 95 | 1016.2 |
| 20260905133659 | 54 | 0 | 0.0 | 0.0 | 0.00 | 0.28 | 0.01 | 96 | 1016.2 |
| 20260905133146 | 54 | 0 | 0.0 | 0.0 | 0.00 | 0.28 | 0.01 | 95 | 1016.2 |
| 20260905132633 | 54 | 0 | 0.0 | 0.0 | 0.00 | 0.28 | 0.01 | 95 | 1016.1 |
| 20260905131607 | 54 | 0 | 0.0 | 0.0 | 0.00 | 0.28 | 0.01 | 95 | 1016.1 |
| 20260905131054 | 54 | 0 | 0.0 | 0.0 | 0.00 | 0.28 | 0.01 | 95 | 1016.1 |
| 20260905130541 | 54 | 0 | 0.0 | 0.0 | 0.00 | 0.28 | 0.01 | 95 | 1016.2 |
| 20260905130028 | 54 | 0 | 0.0 | 0.0 | 0.00 | 0.28 | 0.01 | 95 | 1016.2 |
| 20260905125515 | 54 | 0 | 0.0 | 0.0 | 0.00 | 0.34 | 0.01 | 95 | 1016.1 |
| 20260905125002 | 54 | 0 | 0.0 | 0.0 | 0.00 | 0.34 | 0.01 | 95 | 1016.1 |
| 20260905123936 | 54 | 0 | 0.0 | 0.0 | 0.00 | 0.34 | 0.01 | 95 | 1016.0 |
| 20260905123423 | 54 | 0 | 0.0 | 0.0 | 0.00 | 0.34 | 0.01 | 95 | 1016.1 |
| 20260905122910 | 54 | 0 | 0.0 | 0.0 | 0.00 | 0.34 | 0.01 | 95 | 1016.1 |
| 20260905122357 | 54 | 0 | 0.0 | 0.0 | 0.00 | 0.34 | 0.01 | 95 | 1016.0 |
| 20260905121844 | 54 | 0 | 0.0 | 0.0 | 0.01 | 0.34 | 0.01 | 95 | 1016.0 |
| 20260905121331 | 54 | 0 | 0.0 | 0.0 | 0.01 | 0.34 | 0.01 | 95 | 1015.9 |
| 20260905120305 | 54 | 0 | 0.0 | 0.0 | 0.01 | 0.34 | 0.01 | 95 | 1015.9 |
| 20260905115752 | 55 | 0 | 0.0 | 0.0 | 0.01 | 0.59 | 0.01 | 95 | 1015.9 |
| 20260905115239 | 55 | 0 | 0.0 | 0.0 | 0.01 | 0.59 | 0.01 | 95 | 1015.9 |
| 20260905114726 | 55 | 0 | 0.0 | 0.0 | 0.01 | 0.59 | 0.01 | 95 | 1015.9 |
| 20260905114213 | 54 | 0 | 0.0 | 0.0 | 0.01 | 0.59 | 0.01 | 95 | 1015.9 |
| 20260905113700 | 54 | 0 | 0.0 | 0.0 | 0.01 | 0.59 | 0.01 | 95 | 1015.9 |
| 20260905113147 | 54 | 0 | 0.0 | 0.0 | 0.01 | 0.59 | 0.01 | 95 | 1015.9 |
| 20260905112634 | 54 | 0 | 0.0 | 0.0 | 0.01 | 0.59 | 0.01 | 95 | 1015.8 |
| 20260905112121 | 54 | 0 | 0.0 | 0.0 | 0.01 | 0.59 | 0.01 | 95 | 1015.8 |
| 20260905111608 | 54 | 0 | 0.0 | 0.0 | 0.00 | 0.59 | 0.00 | 95 | 1015.8 |
| 20260905111055 | 55 | 0 | 0.0 | 0.0 | 0.00 | 0.59 | 0.00 | 95 | 1015.9 |
| 20260905110542 | 54 | 0 | 0.0 | 0.0 | 0.00 | 0.59 | 0.00 | 95 | 1015.8 |
| 20260905110029 | 55 | 0 | 0.0 | 0.0 | 0.00 | 0.59 | 0.00 | 95 | 1015.8 |
| 20260905105516 | 55 | 0 | 0.0 | 0.0 | 0.00 | 0.72 | 0.00 | 95 | 1015.8 |
| 20260905105003 | 55 | 0 | 0.0 | 0.0 | 0.00 | 0.72 | 0.00 | 95 | 1015.8 |
| 20260905104450 | 54 | 0 | 0.0 | 0.0 | 0.00 | 0.72 | 0.00 | 95 | 1015.8 |
| 20260905103937 | 54 | 0 | 0.0 | 0.0 | 0.00 | 0.72 | 0.00 | 95 | 1015.8 |
| 20260905103424 | 54 | 0 | 0.0 | 0.0 | 0.00 | 0.72 | 0.00 | 95 | 1015.8 |
| 20260905102911 | 55 | 0 | 0.0 | 0.0 | 0.00 | 0.72 | 0.00 | 95 | 1015.7 |
| 20260905102358 | 55 | 0 | 0.0 | 0.0 | 0.00 | 0.72 | 0.00 | 95 | 1015.7 |
| 20260905101845 | 55 | 0 | 0.0 | 0.0 | 0.00 | 0.72 | 0.00 | 95 | 1015.7 |
| 20260905101332 | 55 | 0 | 0.0 | 0.0 | 0.00 | 0.72 | 0.00 | 95 | 1015.7 |
| 20260905100819 | 54 | 0 | 0.0 | 0.0 | 0.00 | 0.72 | 0.00 | 95 | 1015.7 |
| 20260905100306 | 55 | 0 | 0.0 | 0.0 | 0.00 | 0.72 | 0.00 | 95 | 1015.7 |
| 20260905095753 | 55 | 0 | 0.0 | 0.0 | 0.00 | 0.79 | 0.00 | 95 | 1015.7 |
| 20260905095240 | 55 | 0 | 0.0 | 0.0 | 0.00 | 0.79 | 0.00 | 95 | 1015.7 |
| 20260905094727 | 54 | 0 | 0.0 | 0.0 | 0.00 | 0.79 | 0.00 | 95 | 1015.7 |
| 20260905094214 | 55 | 0 | 0.0 | 0.0 | 0.00 | 0.79 | 0.00 | 95 | 1015.7 |
| 20260905093701 | 54 | 0 | 0.0 | 0.0 | 0.00 | 0.79 | 0.00 | 95 | 1015.7 |
| 20260905093148 | 54 | 0 | 0.0 | 0.0 | 0.00 | 0.79 | 0.00 | 95 | 1015.6 |
| 20260905092635 | 54 | 0 | 0.0 | 0.0 | 0.00 | 0.79 | 0.00 | 95 | 1015.6 |
| 20260905092122 | 54 | 0 | 0.0 | 0.0 | 0.00 | 0.79 | 0.00 | 95 | 1015.7 |
| 20260905091610 | 54 | 0 | 0.0 | 0.0 | 0.00 | 0.79 | 0.00 | 95 | 1015.6 |
| 20260905091056 | 54 | 0 | 0.0 | 0.0 | 0.00 | 0.79 | 0.00 | 95 | 1015.5 |
| 20260905090543 | 54 | 0 | 0.0 | 0.0 | 0.00 | 0.79 | 0.00 | 95 | 1015.5 |
| 20260905090030 | 54 | 0 | 0.0 | 0.0 | 0.00 | 0.79 | 0.00 | 95 | 1015.5 |
| 20260905085517 | 54 | 0 | 0.0 | 0.0 | 0.00 | 0.81 | 0.00 | 95 | 1015.4 |
| 20260905085004 | 54 | 0 | 0.0 | 0.0 | 0.00 | 0.81 | 0.00 | 95 | 1015.5 |
| 20260905084451 | 54 | 0 | 0.0 | 0.0 | 0.00 | 0.81 | 0.00 | 95 | 1015.5 |
| 20260905083424 | 54 | 0 | 0.0 | 0.0 | 0.00 | 0.81 | 0.00 | 95 | 1015.5 |
| 20260905082912 | 54 | 0 | 0.0 | 0.0 | 0.00 | 0.81 | 0.00 | 95 | 1015.4 |
| 20260905082359 | 55 | 0 | 0.0 | 0.0 | 0.00 | 0.81 | 0.00 | 95 | 1015.4 |
| 20260905081846 | 55 | 0 | 0.0 | 0.0 | 0.00 | 0.81 | 0.00 | 95 | 1015.4 |
| 20260905081332 | 54 | 0 | 0.0 | 0.0 | 0.00 | 0.81 | 0.00 | 95 | 1015.3 |
| 20260905080820 | 54 | 0 | 0.0 | 0.0 | 0.00 | 0.81 | 0.00 | 95 | 1015.3 |
| 20260905080306 | 54 | 0 | 0.0 | 0.0 | 0.00 | 0.81 | 0.00 | 95 | 1015.3 |
| 20260905075754 | 55 | 0 | 0.0 | 0.0 | 0.00 | 0.83 | 0.00 | 95 | 1015.2 |
| 20260905075240 | 54 | 0 | 0.0 | 0.0 | 0.00 | 0.83 | 0.81 | 95 | 1015.1 |
| 20260905074729 | 54 | 0 | 0.0 | 0.0 | 0.00 | 0.83 | 0.81 | 95 | 1015.1 |
| 20260905073701 | 54 | 0 | 0.0 | 0.0 | 0.00 | 0.83 | 0.81 | 94 | 1015.1 |
| 20260905073149 | 55 | 0 | 0.0 | 0.0 | 0.00 | 0.83 | 0.81 | 94 | 1015.1 |
| 20260905072636 | 55 | 0 | 0.0 | 0.0 | 0.00 | 0.83 | 0.81 | 94 | 1015.1 |
| 20260905071609 | 54 | 0 | 0.0 | 0.0 | 0.00 | 0.83 | 0.81 | 94 | 1014.9 |
| 20260905071056 | 55 | 0 | 0.0 | 0.0 | 0.00 | 0.83 | 0.81 | 94 | 1014.9 |
| 20260905070543 | 54 | 0 | 0.0 | 0.0 | 0.00 | 0.83 | 0.81 | 94 | 1014.9 |
| 20260905070030 | 55 | 0 | 0.0 | 0.0 | 0.00 | 0.83 | 0.81 | 94 | 1014.9 |
| 20260905065517 | 55 | 0 | 0.0 | 0.0 | 0.00 | 1.04 | 0.81 | 94 | 1014.8 |
| 20260905065004 | 55 | 0 | 0.0 | 0.0 | 0.00 | 1.04 | 0.81 | 94 | 1014.8 |
| 20260905064451 | 55 | 0 | 0.0 | 0.0 | 0.00 | 1.04 | 0.81 | 94 | 1014.8 |
| 20260905063938 | 55 | 0 | 0.0 | 0.0 | 0.00 | 1.04 | 0.81 | 94 | 1014.8 |
| 20260905063425 | 55 | 0 | 0.0 | 0.0 | 0.00 | 1.04 | 0.81 | 94 | 1014.7 |
| 20260905062912 | 55 | 0 | 0.0 | 0.0 | 0.00 | 1.04 | 0.81 | 94 | 1014.7 |
| 20260905062359 | 55 | 0 | 0.0 | 0.0 | 0.00 | 1.04 | 0.81 | 94 | 1014.7 |
| 20260905061846 | 55 | 0 | 0.0 | 0.0 | 0.00 | 1.04 | 0.81 | 94 | 1014.7 |
| 20260905061333 | 55 | 0 | 0.0 | 0.0 | 0.00 | 1.04 | 0.81 | 94 | 1014.7 |
| 20260905060821 | 55 | 0 | 0.0 | 0.0 | 0.00 | 1.04 | 0.81 | 94 | 1014.6 |
| 20260905055754 | 55 | 0 | 0.0 | 0.0 | 0.00 | 1.17 | 0.81 | 94 | 1014.6 |
| 20260905055241 | 55 | 0 | 0.0 | 0.0 | 0.00 | 1.17 | 0.81 | 94 | 1014.7 |
| 20260905054728 | 55 | 0 | 0.0 | 0.0 | 0.00 | 1.17 | 0.81 | 94 | 1014.7 |
| 20260905054215 | 55 | 0 | 0.0 | 0.0 | 0.00 | 1.17 | 0.81 | 94 | 1014.6 |
| 20260905053702 | 55 | 0 | 0.0 | 0.0 | 0.00 | 1.17 | 0.81 | 94 | 1014.6 |
| 20260905053149 | 55 | 0 | 0.0 | 0.0 | 0.00 | 1.17 | 0.81 | 94 | 1014.6 |
| 20260905052636 | 55 | 0 | 0.0 | 0.0 | 0.00 | 1.17 | 0.81 | 94 | 1014.6 |
| 20260905052123 | 55 | 0 | 0.0 | 0.0 | 0.00 | 1.17 | 0.81 | 94 | 1014.6 |
| 20260905051610 | 55 | 0 | 0.0 | 0.0 | 0.00 | 1.17 | 0.81 | 94 | 1014.6 |
| 20260905051058 | 55 | 0 | 0.0 | 0.0 | 0.00 | 1.17 | 0.81 | 94 | 1014.5 |
| 20260905050544 | 55 | 0 | 0.0 | 0.0 | 0.00 | 1.17 | 0.81 | 94 | 1014.5 |
| 20260905050031 | 55 | 0 | 0.0 | 0.0 | 0.00 | 1.17 | 0.81 | 94 | 1014.5 |
| 20260905045005 | 55 | 0 | 0.0 | 0.0 | 0.00 | 1.26 | 0.81 | 94 | 1014.3 |
| 20260905044452 | 55 | 0 | 0.0 | 0.0 | 0.00 | 1.26 | 0.81 | 94 | 1014.3 |
| 20260905043939 | 56 | 0 | 0.0 | 0.0 | 0.00 | 1.26 | 0.81 | 94 | 1014.3 |
| 20260905043426 | 56 | 0 | 0.0 | 0.0 | 0.00 | 1.26 | 0.81 | 93 | 1014.3 |
| 20260905042913 | 55 | 0 | 0.0 | 0.0 | 0.00 | 1.26 | 0.81 | 93 | 1014.2 |
| 20260905042400 | 56 | 0 | 0.0 | 0.0 | 0.00 | 1.26 | 0.81 | 93 | 1014.2 |
| 20260905041847 | 55 | 0 | 0.0 | 0.0 | 0.00 | 1.26 | 0.81 | 93 | 1014.2 |
| 20260905041334 | 56 | 0 | 0.0 | 0.0 | 0.00 | 1.26 | 0.81 | 93 | 1014.1 |
| 20260905040821 | 55 | 0 | 0.0 | 0.0 | 0.00 | 1.26 | 0.81 | 93 | 1014.1 |
| 20260905040308 | 56 | 0 | 0.0 | 0.0 | 0.00 | 1.26 | 0.81 | 93 | 1014.1 |
| 20260905035756 | 56 | 0 | 0.0 | 0.0 | 0.00 | 1.37 | 0.81 | 93 | 1014.1 |
| 20260905035242 | 56 | 0 | 0.0 | 0.0 | 0.00 | 1.37 | 0.81 | 93 | 1014.1 |
| 20260905034729 | 56 | 0 | 0.0 | 0.0 | 0.01 | 1.37 | 0.81 | 93 | 1014.0 |
| 20260905034216 | 56 | 0 | 0.0 | 0.0 | 0.01 | 1.37 | 0.81 | 93 | 1013.9 |
| 20260905033703 | 56 | 0 | 0.0 | 0.0 | 0.03 | 1.37 | 0.81 | 93 | 1013.9 |
| 20260905033150 | 56 | 0 | 0.0 | 0.0 | 0.03 | 1.37 | 0.81 | 93 | 1013.8 |
| 20260905032637 | 56 | 0 | 0.0 | 0.0 | 0.06 | 1.37 | 0.81 | 93 | 1013.7 |
| 20260905032124 | 56 | 0 | 0.0 | 0.0 | 0.06 | 1.37 | 0.81 | 93 | 1013.7 |
| 20260905031058 | 57 | 0 | 0.0 | 0.0 | 0.06 | 1.37 | 0.81 | 93 | 1013.6 |
| 20260905030545 | 57 | 0 | 0.0 | 0.0 | 0.06 | 1.37 | 0.81 | 93 | 1013.6 |
| 20260905030033 | 57 | 0 | 0.0 | 4.0 | 0.06 | 1.37 | 0.81 | 92 | 1013.6 |
| 20260905025519 | 56 | 0 | 0.0 | 4.0 | 0.06 | 1.37 | 0.81 | 92 | 1013.6 |
| 20260905025006 | 57 | 0 | 0.0 | 4.0 | 0.06 | 1.37 | 0.81 | 92 | 1013.6 |
| 20260905024453 | 57 | 0 | 0.0 | 0.0 | 0.05 | 1.37 | 0.80 | 92 | 1013.5 |
| 20260905023940 | 58 | 0 | 0.0 | 4.0 | 0.03 | 1.37 | 0.80 | 92 | 1013.6 |
| 20260905023427 | 58 | 21 | 0.0 | 4.0 | 0.03 | 1.37 | 0.79 | 92 | 1013.6 |
| 20260905022914 | 58 | 74 | 0.0 | 3.0 | 0.00 | 1.37 | 0.78 | 92 | 1013.6 |
| 20260905022401 | 58 | 0 | 0.0 | 0.0 | 0.00 | 1.37 | 0.75 | 92 | 1013.6 |
| 20260905021848 | 58 | 0 | 0.0 | 0.0 | 0.00 | 1.37 | 0.75 | 92 | 1013.5 |
| 20260905020823 | 58 | 74 | 0.0 | 5.0 | 0.00 | 1.37 | 0.75 | 92 | 1013.4 |
| 20260905020309 | 58 | 61 | 1.0 | 5.0 | 0.00 | 1.37 | 0.75 | 91 | 1013.4 |
| 20260905015756 | 58 | 357 | 2.0 | 5.0 | 0.00 | 1.42 | 0.75 | 91 | 1013.3 |
| 20260905015243 | 58 | 64 | 0.0 | 5.0 | 0.00 | 1.42 | 0.75 | 91 | 1013.3 |
| 20260905014730 | 59 | 0 | 0.0 | 0.0 | 0.00 | 1.42 | 0.75 | 91 | 1013.2 |
| 20260905014217 | 60 | 0 | 0.0 | 0.0 | 0.00 | 1.42 | 0.75 | 91 | 1013.1 |
| 20260905013704 | 60 | 0 | 0.0 | 0.0 | 0.00 | 1.42 | 0.75 | 91 | 1013.1 |
| 20260905012638 | 60 | 0 | 0.0 | 0.0 | 0.00 | 1.42 | 0.75 | 91 | 1013.0 |
| 20260905012125 | 61 | 0 | 0.0 | 0.0 | 0.00 | 1.42 | 0.75 | 91 | 1013.0 |
| 20260905011612 | 61 | 0 | 0.0 | 0.0 | 0.00 | 1.42 | 0.75 | 91 | 1013.0 |
| 20260905011059 | 61 | 0 | 0.0 | 0.0 | 0.00 | 1.42 | 0.75 | 91 | 1013.0 |
| 20260905010546 | 61 | 0 | 0.0 | 0.0 | 0.00 | 1.42 | 0.75 | 91 | 1012.9 |
| 20260905010033 | 61 | 0 | 0.0 | 0.0 | 0.00 | 1.42 | 0.75 | 91 | 1012.9 |
| 20260905005520 | 62 | 0 | 0.0 | 0.0 | 0.00 | 1.48 | 0.75 | 91 | 1012.8 |
| 20260905005007 | 62 | 0 | 0.0 | 4.0 | 0.00 | 1.48 | 0.75 | 91 | 1012.7 |
| 20260905004454 | 63 | 0 | 0.0 | 4.0 | 0.00 | 1.48 | 0.75 | 92 | 1012.7 |
| 20260905003941 | 62 | 180 | 0.0 | 4.0 | 0.00 | 1.48 | 0.75 | 92 | 1012.6 |
| 20260905003428 | 63 | 0 | 0.0 | 0.0 | 0.00 | 1.48 | 0.75 | 92 | 1012.5 |
| 20260905002915 | 62 | 0 | 0.0 | 0.0 | 0.00 | 1.48 | 0.75 | 91 | 1012.5 |
| 20260905002402 | 63 | 228 | 0.0 | 4.0 | 0.00 | 1.48 | 0.75 | 91 | 1012.5 |
| 20260905001849 | 63 | 0 | 0.0 | 4.0 | 0.00 | 1.48 | 0.75 | 92 | 1012.5 |
| 20260905000823 | 63 | 256 | 1.0 | 8.0 | 0.00 | 1.48 | 0.75 | 92 | 1012.5 |
| 20260905000310 | 63 | 264 | 0.0 | 8.0 | 0.00 | 1.48 | 0.75 | 93 | 1012.4 |
| 20260904235757 | 62 | 257 | 0.0 | 8.0 | 0.00 | 1.49 | 0.75 | 93 | 1012.4 |
| 20260904235244 | 62 | 298 | 0.0 | 5.0 | 0.00 | 1.49 | 0.75 | 93 | 1012.3 |
| 20260904234218 | 62 | 313 | 6.0 | 9.0 | 0.01 | 1.49 | 0.75 | 93 | 1012.2 |
| 20260904233705 | 63 | 235 | 6.0 | 9.0 | 0.01 | 1.49 | 0.75 | 93 | 1012.3 |
| 20260904233152 | 63 | 287 | 2.0 | 8.0 | 0.01 | 1.49 | 0.75 | 93 | 1012.2 |
| 20260904232639 | 63 | 271 | 4.0 | 9.0 | 0.01 | 1.49 | 0.75 | 93 | 1012.2 |
| 20260904232126 | 63 | 0 | 0.0 | 9.0 | 0.01 | 1.49 | 0.75 | 94 | 1012.1 |
| 20260904231613 | 62 | 0 | 0.0 | 9.0 | 0.01 | 1.49 | 0.75 | 94 | 1012.1 |
| 20260904231100 | 62 | 273 | 3.0 | 11.0 | 0.01 | 1.49 | 0.75 | 93 | 1012.1 |
| 20260904230547 | 62 | 236 | 2.0 | 11.0 | 0.01 | 1.49 | 0.75 | 94 | 1012.2 |
| 20260904230034 | 61 | 252 | 5.0 | 11.0 | 0.01 | 1.49 | 0.75 | 94 | 1012.2 |
| 20260904225521 | 61 | 275 | 6.0 | 10.0 | 0.01 | 1.48 | 0.75 | 94 | 1012.1 |
| 20260904225008 | 60 | 329 | 6.0 | 10.0 | 0.01 | 1.48 | 0.75 | 94 | 1012.1 |
| 20260904224455 | 59 | 0 | 2.0 | 9.0 | 0.00 | 1.48 | 0.75 | 94 | 1012.2 |
| 20260904223942 | 60 | 252 | 3.0 | 9.0 | 0.00 | 1.48 | 0.74 | 93 | 1012.2 |
| 20260904223429 | 61 | 254 | 0.0 | 9.0 | 0.00 | 1.48 | 0.74 | 93 | 1012.1 |
| 20260904222916 | 61 | 257 | 1.0 | 6.0 | 0.00 | 1.48 | 0.74 | 94 | 1012.1 |
| 20260904222403 | 61 | 0 | 0.0 | 0.0 | 0.00 | 1.48 | 0.74 | 94 | 1012.0 |
| 20260904221337 | 60 | 259 | 3.0 | 6.0 | 0.00 | 1.48 | 0.74 | 94 | 1012.0 |
| 20260904220824 | 61 | 226 | 0.0 | 6.0 | 0.00 | 1.48 | 0.74 | 94 | 1012.1 |
| 20260904220311 | 61 | 170 | 0.0 | 2.0 | 0.00 | 1.48 | 0.74 | 94 | 1012.1 |
| 20260904215758 | 61 | 0 | 0.0 | 0.0 | 0.00 | 1.48 | 0.74 | 94 | 1012.0 |
| 20260904215245 | 62 | 0 | 0.0 | 6.0 | 0.00 | 1.48 | 0.74 | 93 | 1012.0 |
| 20260904214219 | 62 | 201 | 0.0 | 6.0 | 0.00 | 1.48 | 0.74 | 94 | 1011.9 |
| 20260904213706 | 62 | 0 | 0.0 | 0.0 | 0.00 | 1.48 | 0.74 | 95 | 1011.9 |
| 20260904213153 | 61 | 0 | 0.0 | 0.0 | 0.00 | 1.48 | 0.74 | 95 | 1011.9 |
| 20260904212640 | 60 | 0 | 0.0 | 0.0 | 0.00 | 1.48 | 0.74 | 95 | 1011.8 |
| 20260904212127 | 59 | 0 | 0.0 | 5.0 | 0.00 | 1.48 | 0.74 | 95 | 1011.8 |